Macomb, IL

12:28 AM CDT on October 21, 2017 (GMT -0500)
Macomb Municipal

Weather History for KMQB - March, 2013

Change the Weather History Date:

Monday, March 4, 2013

  Actual Average (KBRL) Record (KBRL)
Temperature  
Mean Temperature 32 °F -  
Max Temperature 36 °F 45 °F 72 °F (1961)
Min Temperature 28 °F 26 °F -6 °F (2002)
Degree Days  
Heating Degree Days 33    
Moisture  
Dew Point 28 °F    
Average Humidity 84    
Maximum Humidity 94    
Minimum Humidity 75    
Precipitation  
Precipitation 0.00 in - - ()
Sea Level Pressure  
Sea Level Pressure 29.94 in    
Wind  
Wind Speed 15 mph (ESE)    
Max Wind Speed 22 mph    
Max Gust Speed 31 mph    
Visibility 9 miles    
Events Rain , Snow    
Averages and records for this station are not official NWS values.
T = Trace of Precipitation, MM = Missing Value Source: NWS Daily Summary

Daily Weather History Graph

Daily Weather History Graph

Search for Another Location

Airport or City:

Trip Planner

Search our weather history database for the weather conditions in past years. The results will help you decide how hot, cold, wet, or windy it might be!

Date:

Astronomy

Mar. 04, 2013 Rise Set
Actual Time 6:31 AM CST 5:57 PM CST
Civil Twilight 6:04 AM CST 6:25 PM CST
Nautical Twilight 5:32 AM CST 6:56 PM CST
Astronomical Twilight 5:00 AM CST 7:28 PM CST
Moon 12:42 AM CST (3/4) 10:38 AM CST (3/4)
Length of Visible Light 12h 20m
Length of Day
11h 26m
Waning Gibbous, 52% of the Moon is Illuminated
Mar 4
Waning Gibbous
Mar 4
Last Quarter
Mar 11
New
Mar 19
First Quarter
Mar 27
Full

Hourly Weather History & Observations

Time (CST) Temp. Windchill Dew Point Humidity Pressure Visibility Wind Dir Wind Speed Gust Speed Precip Events Conditions
12:15 AM 28.4 °F 19.1 °F 21.7 °F 76% 30.06 in 10.0 mi ESE 10.4 mph - N/A   Overcast
12:35 AM 28.4 °F 19.7 °F 21.9 °F 77% 30.06 in 10.0 mi ESE 9.2 mph - N/A   Overcast
12:55 AM 28.9 °F 19.2 °F 22.5 °F 77% 30.06 in 10.0 mi ESE 11.5 mph - N/A   Overcast
1:15 AM 28.9 °F 20.4 °F 22.6 °F 77% 30.07 in 10.0 mi ESE 9.2 mph - N/A   Overcast
1:35 AM 28.4 °F 18.5 °F 23.0 °F 80% 30.07 in 10.0 mi ESE 11.5 mph - N/A Snow Light Snow
1:55 AM 28.4 °F 17.5 °F 23.7 °F 83% 30.06 in 3.0 mi East 13.8 mph - N/A Snow Light Snow
2:15 AM 28.4 °F 16.6 °F 24.4 °F 85% 30.05 in 10.0 mi East 16.1 mph - N/A   Overcast
2:35 AM 28.4 °F 16.6 °F 24.6 °F 86% 30.04 in 10.0 mi ESE 16.1 mph - N/A   Overcast
2:55 AM 28.2 °F 17.2 °F 24.3 °F 85% 30.03 in 10.0 mi ESE 13.8 mph - N/A   Overcast
3:15 AM 28.4 °F 18.0 °F 24.8 °F 86% 30.02 in 4.0 mi ESE 12.7 mph - N/A Snow Light Snow
3:35 AM 28.0 °F 18.1 °F 25.7 °F 91% 30.01 in 1.5 mi ESE 11.5 mph - N/A Snow Light Snow
3:55 AM 28.0 °F 16.5 °F 26.6 °F 94% 30.00 in 3.0 mi ESE 15.0 mph - N/A Snow Light Snow
4:15 AM 28.2 °F 16.3 °F 26.4 °F 93% 29.99 in 3.0 mi ESE 16.1 mph - N/A Snow Light Snow
4:35 AM 28.4 °F 17.0 °F 26.6 °F 93% 30.00 in 4.0 mi ESE 15.0 mph - N/A Snow Light Snow
4:55 AM 28.4 °F 17.5 °F 26.4 °F 92% 30.00 in 5.0 mi ESE 13.8 mph - N/A Snow Light Snow
5:15 AM 28.4 °F 17.0 °F 26.6 °F 93% 29.99 in 4.0 mi ESE 15.0 mph - N/A Snow Light Snow
5:35 AM 28.8 °F 16.6 °F 27.0 °F 93% 29.98 in 7.0 mi ESE 17.3 mph - N/A Snow Light Snow
5:55 AM 29.1 °F 16.7 °F 27.0 °F 92% 29.97 in 10.0 mi ESE 18.4 mph 23.0 mph N/A Rain Light Freezing Rain
6:15 AM 29.3 °F 17.3 °F 27.0 °F 91% 29.97 in 10.0 mi ESE 17.3 mph - N/A   Light Freezing Rain
6:35 AM 28.9 °F 17.3 °F 26.6 °F 91% 29.97 in 10.0 mi ESE 16.1 mph - N/A   Mostly Cloudy
6:55 AM 28.9 °F 16.5 °F 26.6 °F 91% 29.96 in 10.0 mi ESE 18.4 mph - N/A   Clear
7:15 AM 29.1 °F 16.4 °F 26.6 °F 90% 29.96 in 10.0 mi ESE 19.6 mph - N/A   Scattered Clouds
7:35 AM 29.3 °F 17.0 °F 27.1 °F 92% 29.96 in 10.0 mi ESE 18.4 mph - N/A   Scattered Clouds
7:55 AM 29.8 °F 17.7 °F 27.5 °F 91% 29.96 in 10.0 mi ESE 18.4 mph - N/A   Scattered Clouds
8:15 AM 30.0 °F 17.5 °F 27.7 °F 91% 29.95 in 10.0 mi ESE 19.6 mph - N/A   Mostly Cloudy
8:35 AM 30.2 °F 18.5 °F 28.0 °F 92% 29.95 in 10.0 mi ESE 17.3 mph - N/A   Overcast
8:55 AM 30.7 °F 18.5 °F 28.2 °F 90% 29.95 in 10.0 mi ESE 19.6 mph - N/A   Overcast
9:15 AM 31.5 °F 20.1 °F 28.4 °F 88% 29.95 in 10.0 mi ESE 17.3 mph - N/A   Mostly Cloudy
9:35 AM 32.0 °F 19.8 °F 28.8 °F 88% 29.95 in 10.0 mi ESE 20.7 mph - N/A   Scattered Clouds
9:55 AM 32.0 °F 19.8 °F 28.9 °F 88% 29.94 in 10.0 mi ESE 20.7 mph 25.3 mph N/A   Scattered Clouds
10:15 AM 32.5 °F 20.5 °F 28.8 °F 86% 29.93 in 10.0 mi ESE 20.7 mph 25.3 mph N/A   Clear
10:35 AM 33.4 °F 21.4 °F 28.8 °F 83% 29.92 in 10.0 mi ESE 21.9 mph - N/A   Clear
10:55 AM 33.6 °F 21.9 °F 28.8 °F 82% 29.92 in 10.0 mi ESE 20.7 mph 31.1 mph N/A   Clear
11:15 AM 33.8 °F 23.2 °F 28.9 °F 82% 29.92 in 10.0 mi ESE 17.3 mph 25.3 mph N/A   Clear
11:35 AM 34.2 °F 23.6 °F 28.9 °F 81% 29.90 in 10.0 mi ESE 17.3 mph - N/A   Clear
11:55 AM 34.7 °F 24.0 °F 29.1 °F 80% 29.90 in 10.0 mi ESE 18.4 mph - N/A   Clear
12:15 PM 34.9 °F 23.3 °F 29.1 °F 79% 29.90 in 10.0 mi ESE 21.9 mph 25.3 mph N/A   Clear
12:35 PM 35.1 °F 24.5 °F 29.3 °F 80% 29.89 in 10.0 mi ESE 18.4 mph 24.2 mph N/A   Clear
12:55 PM 35.6 °F 25.2 °F 29.1 °F 77% 29.89 in 10.0 mi ESE 18.4 mph - N/A   Clear
1:15 PM 35.6 °F 25.9 °F 29.1 °F 77% 29.88 in 10.0 mi ESE 16.1 mph - N/A   Clear
1:35 PM 35.6 °F 25.2 °F 29.3 °F 78% 29.88 in 10.0 mi ESE 18.4 mph - N/A   Clear
1:55 PM 36.0 °F 25.3 °F 29.1 °F 76% 29.87 in 10.0 mi ESE 19.6 mph - N/A   Clear
2:15 PM 36.1 °F 25.2 °F 29.1 °F 76% 29.86 in 10.0 mi ESE 20.7 mph - N/A   Clear
2:35 PM 35.8 °F 25.1 °F 29.1 °F 77% 29.85 in 10.0 mi ESE 19.6 mph - N/A   Clear
2:55 PM 36.0 °F 26.0 °F 29.7 °F 78% 29.87 in 10.0 mi ESE 17.3 mph 23.0 mph N/A   Clear
3:15 PM 35.8 °F 25.7 °F 29.7 °F 78% 29.86 in 10.0 mi East 17.3 mph 21.9 mph N/A   Clear
3:35 PM 36.1 °F 26.2 °F 28.8 °F 75% 29.86 in 10.0 mi ESE 17.3 mph 24.2 mph N/A   Clear
3:55 PM 35.6 °F 26.6 °F 29.3 °F 78% 29.86 in 10.0 mi East 13.8 mph - N/A   Clear
4:15 PM 35.6 °F 26.2 °F 29.3 °F 78% 29.86 in 10.0 mi ESE 15.0 mph 25.3 mph N/A   Clear
4:35 PM 35.1 °F 26.9 °F 29.5 °F 80% 29.88 in 10.0 mi East 11.5 mph - N/A   Clear
4:55 PM 34.7 °F 23.4 °F 28.4 °F 78% 29.88 in 10.0 mi East 20.7 mph - N/A   Clear
5:15 PM 34.0 °F 23.0 °F 28.2 °F 79% 29.88 in 10.0 mi East 18.4 mph - N/A   Clear
5:35 PM 33.8 °F 23.5 °F 27.7 °F 78% 29.89 in 10.0 mi ESE 16.1 mph 20.7 mph N/A   Clear
5:55 PM 33.4 °F 22.3 °F 27.9 °F 80% 29.90 in 10.0 mi ESE 18.4 mph - N/A   Mostly Cloudy
6:15 PM 33.1 °F 22.2 °F 27.5 °F 80% 29.90 in 10.0 mi East 17.3 mph - N/A   Scattered Clouds
6:35 PM 33.3 °F 22.8 °F 27.3 °F 79% 29.92 in 10.0 mi ESE 16.1 mph - N/A   Scattered Clouds
6:55 PM 32.9 °F 22.8 °F 28.2 °F 83% 29.92 in 10.0 mi East 15.0 mph - N/A   Mostly Cloudy
7:15 PM 32.9 °F 23.2 °F 28.2 °F 83% 29.93 in 10.0 mi East 13.8 mph - N/A   Overcast
7:35 PM 32.4 °F 22.1 °F 28.0 °F 84% 29.92 in 10.0 mi East 15.0 mph - N/A   Mostly Cloudy
7:55 PM 32.0 °F 23.6 °F 28.0 °F 85% 29.92 in 10.0 mi East 10.4 mph - N/A   Clear
8:15 PM 32.0 °F 22.5 °F 28.4 °F 87% 29.92 in 10.0 mi East 12.7 mph - N/A   Clear
8:35 PM 32.0 °F 22.5 °F 27.9 °F 85% 29.92 in 10.0 mi East 12.7 mph - N/A   Clear
8:55 PM 32.0 °F 23.0 °F 28.0 °F 85% 29.92 in 10.0 mi East 11.5 mph - N/A   Clear
9:15 PM 32.2 °F 22.7 °F 28.4 °F 86% 29.92 in 10.0 mi East 12.7 mph - N/A   Mostly Cloudy
9:35 PM 32.5 °F 23.7 °F 28.4 °F 85% 29.92 in 10.0 mi East 11.5 mph - N/A   Overcast
9:55 PM 32.5 °F 23.7 °F 28.4 °F 85% 29.92 in 10.0 mi East 11.5 mph - N/A   Overcast
10:15 PM 32.4 °F 23.5 °F 28.6 °F 86% 29.92 in 10.0 mi East 11.5 mph - N/A   Mostly Cloudy
10:35 PM 32.5 °F 23.7 °F 28.6 °F 85% 29.92 in 10.0 mi East 11.5 mph - N/A   Mostly Cloudy
10:55 PM 32.9 °F 24.7 °F 28.8 °F 85% 29.92 in 10.0 mi East 10.4 mph - N/A   Overcast
11:15 PM 32.9 °F 24.7 °F 29.1 °F 86% 29.90 in 10.0 mi East 10.4 mph - N/A   Mostly Cloudy
11:35 PM 32.0 °F 24.8 °F 29.3 °F 90% 29.90 in 10.0 mi ENE 8.1 mph - N/A   Scattered Clouds
11:55 PM 32.2 °F 25.0 °F 29.7 °F 90% 29.90 in 10.0 mi NE 8.1 mph - N/A   Overcast